Location: Aalen
(48.8330°N, 10.1000°E)
Time: 19:05:08
(UTC+02:00)

S-56A Canister/Altair - Pass Details

Date: 05 August 2021
Orbit: 632 x 2500 km, 38.9° (Epoch: 19 September)

Event Time Altitude Azimuth Distance (km) Brightness Sun altitude
Rises 19:02:24 0° 273° (W) 5,847 13.9 16.3°
Reaches altitude 10° 19:06:12 10° 268° (W) 4,984 14.0 15.7°
Maximum altitude 19:19:57 48° 201° (SSW) 3,029 10.8 13.5°
Drops below altitude 10° 19:33:09 10° 133° (SE) 4,782 11.1 11.3°
Sets 19:36:43 0° 128° (SE) 5,600 11.4 10.8°
